Date String (YYYY-MM-DD hh:mm:ss) UTC,Instrument flags,absolute air pressure of the measurement (hPa),sample flow rate (lpm),inlet stack bypass flow (lpm),air temperature of the measurement (°C),ambient temperature measured by the external sensor (°C),aerosol sample conditioner tube jacket temperature (°C),OPC LED temperature (°C),internal box temperature (°C),relative humidity of the measurement (%),span deviation,mass concentration of particles derived from Lorenz-Mie calculation of OPC scattering (μg/m³),mass concentration of particles derived from Lorenz-Mie calculation of OPC scattering (μg/m³),mass concentration of particles derived from Lorenz-Mie calculation of OPC scattering (μg/m³)
DateTimeUTC,F1_M11,P_M11,Q1_M11,Q2_M11,T1_M11,T2_M11,T3_M11,T4_M11,T5_M11,U1_M11,ZSPAN_M11,X2_M11,X0_M11,X1_M11
2023-12-30 00:00:00,SystemResetWarning,0832.2,4.99,000.00,025.4,024.8,000.0,033.6,026.7,7.1,0000.0,0001.11,0004.64,0000.53
2023-12-30 00:01:00,SystemResetWarning,0832.2,4.99,000.00,025.4,024.8,000.0,033.6,026.7,7.1,0000.0,0001.12,0004.60,0000.53
2023-12-30 00:02:00,SystemResetWarning,0832.2,4.99,000.00,025.5,024.8,000.0,033.6,026.7,7.1,0000.0,0001.16,0004.58,0000.54
2023-12-30 00:03:00,SystemResetWarning,0832.2,5.01,000.00,025.5,024.8,000.0,033.6,026.7,7.1,0000.0,0001.15,0004.26,0000.56
2023-12-30 00:04:00,SystemResetWarning,0832.2,5.01,000.00,025.5,024.8,000.0,033.6,026.7,7.1,0000.0,0001.16,0004.15,0000.56
2023-12-30 00:05:00,SystemResetWarning,0832.2,5.00,000.00,025.5,024.8,000.0,033.6,026.8,7.1,0000.0,0001.19,0004.15,0000.57
2023-12-30 00:06:00,SystemResetWarning,0832.2,5.00,000.00,025.5,024.8,000.0,033.7,026.8,7.1,0000.0,0001.20,0003.78,0000.58
2023-12-30 00:07:00,SystemResetWarning,0832.2,5.00,000.00,025.5,024.8,000.0,033.7,026.8,7.1,0000.0,0001.17,0002.78,0000.57
2023-12-30 00:08:00,SystemResetWarning,0832.2,5.00,000.00,025.5,024.8,000.0,033.7,026.7,7.2,0000.0,0001.14,0002.48,0000.57
2023-12-30 00:09:00,SystemResetWarning,0832.2,5.00,000.00,025.5,024.8,000.0,033.7,026.8,7.1,0000.0,0001.10,0002.94,0000.57
2023-12-30 00:10:00,SystemResetWarning,0832.3,5.00,000.00,025.5,024.8,000.0,033.7,026.8,7.1,0000.0,0001.07,0003.12,0000.56
2023-12-30 00:11:00,SystemResetWarning,0832.2,5.00,000.00,025.5,024.8,000.0,033.7,026.8,7.1,0000.0,0001.07,0003.05,0000.57
2023-12-30 00:12:00,SystemResetWarning,0832.2,5.01,000.00,025.5,024.8,000.0,033.7,026.8,7.1,0000.0,0001.08,0003.03,0000.57
2023-12-30 00:13:00,SystemResetWarning,0832.3,5.01,000.00,025.5,024.8,000.0,033.7,026.8,7.1,0000.0,0001.07,0002.97,0000.56
2023-12-30 00:14:00,SystemResetWarning,0832.3,5.00,000.00,025.5,024.7,000.0,033.7,026.8,7.1,0000.0,0001.08,0003.11,0000.56
2023-12-30 00:15:00,SystemResetWarning,0832.3,5.00,000.00,025.5,024.7,000.0,033.7,026.8,7.1,0000.0,0001.08,0003.13,0000.56
2023-12-30 00:16:00,SystemResetWarning,0832.3,5.00,000.00,025.5,024.7,000.0,033.7,026.8,7.1,0000.0,0001.04,0003.64,0000.55
2023-12-30 00:17:00,SystemResetWarning,0832.3,5.00,000.00,025.5,024.7,000.0,033.7,026.8,7.2,0000.0,0000.98,0003.98,0000.54
2023-12-30 00:18:00,SystemResetWarning,0832.3,5.00,000.00,025.6,024.7,000.0,033.7,026.8,7.2,0000.0,0000.97,0004.14,0000.54
2023-12-30 00:19:00,SystemResetWarning,0832.3,4.99,000.00,025.5,024.7,000.0,033.8,026.8,7.2,0000.0,0000.97,0004.47,0000.54
2023-12-30 00:20:00,SystemResetWarning,0832.3,5.00,000.00,025.6,024.7,000.0,033.8,026.8,7.2,0000.0,0000.98,0004.13,0000.55
2023-12-30 00:21:00,SystemResetWarning,0832.3,5.00,000.00,025.6,024.7,000.0,033.8,026.8,7.1,0000.0,0000.99,0003.96,0000.56
2023-12-30 00:22:00,SystemResetWarning,0832.3,5.00,000.00,025.6,024.6,000.0,033.8,026.8,7.1,0000.0,0000.99,0005.16,0000.57
2023-12-30 00:23:00,SystemResetWarning,0832.3,5.00,000.00,025.6,024.6,000.0,033.8,026.8,7.2,0000.0,0000.97,0005.19,0000.56
2023-12-30 00:24:00,SystemResetWarning,0832.3,5.00,000.00,025.6,024.6,000.0,033.8,026.8,7.2,0000.0,0000.97,0005.25,0000.57
2023-12-30 00:25:00,SystemResetWarning,0832.4,5.01,000.00,025.6,024.6,000.0,033.8,026.8,7.2,0000.0,0001.01,0005.40,0000.57
2023-12-30 00:26:00,SystemResetWarning,0832.3,5.00,000.00,025.6,024.6,000.0,033.8,026.8,7.1,0000.0,0001.03,0005.55,0000.56
2023-12-30 00:27:00,SystemResetWarning,0832.4,4.98,000.00,025.6,024.6,000.0,033.8,026.8,7.1,0000.0,0001.05,0005.15,0000.56
2023-12-30 00:28:00,SystemResetWarning,0832.4,5.00,000.00,025.6,024.6,000.0,033.8,026.8,7.1,0000.0,0001.15,0004.79,0000.57
2023-12-30 00:29:00,SystemResetWarning,0832.4,5.01,000.00,025.5,024.6,000.0,033.8,026.8,7.1,0000.0,0001.18,0004.66,0000.58
2023-12-30 00:30:00,SystemResetWarning,0832.4,4.99,000.00,025.5,024.5,000.0,033.8,026.8,7.1,0000.0,0001.19,0004.35,0000.58
2023-12-30 00:31:00,SystemResetWarning,0832.5,5.01,000.00,025.5,024.5,000.0,033.8,026.8,7.1,0000.0,0001.16,0004.18,0000.58
2023-12-30 00:32:00,SystemResetWarning,0832.5,5.01,000.00,025.5,024.5,000.0,033.8,026.8,7.1,0000.0,0001.15,0004.00,0000.59
2023-12-30 00:33:00,SystemResetWarning,0832.5,4.99,000.00,025.5,024.6,000.0,033.8,026.8,7.1,0000.0,0001.13,0003.96,0000.58
2023-12-30 00:34:00,SystemResetWarning,0832.5,4.99,000.00,025.5,024.6,000.0,033.8,026.8,7.1,0000.0,0001.11,0003.88,0000.58
2023-12-30 00:35:00,SystemResetWarning,0832.5,5.00,000.00,025.5,024.5,000.0,033.8,026.8,7.1,0000.0,0001.11,0003.97,0000.59
2023-12-30 00:36:00,SystemResetWarning,0832.5,5.01,000.00,025.5,024.5,000.0,033.8,026.8,7.1,0000.0,0001.14,0004.05,0000.59
2023-12-30 00:37:00,SystemResetWarning,0832.5,5.00,000.00,025.5,024.5,000.0,033.8,026.8,7.1,0000.0,0001.10,0003.81,0000.60
2023-12-30 00:38:00,SystemResetWarning,0832.5,5.01,000.00,025.5,024.5,000.0,033.8,026.8,7.1,0000.0,0001.13,0003.81,0000.60
2023-12-30 00:39:00,SystemResetWarning,0832.5,5.00,000.00,025.5,024.5,000.0,033.8,026.8,7.1,0000.0,0001.10,0003.90,0000.60
2023-12-30 00:40:00,SystemResetWarning,0832.5,4.99,000.00,025.5,024.5,000.0,033.8,026.7,7.1,0000.0,0001.08,0003.97,0000.59
2023-12-30 00:41:00,SystemResetWarning,0832.5,4.98,000.00,025.5,024.5,000.0,033.8,026.8,7.1,0000.0,0001.08,0003.96,0000.60
2023-12-30 00:42:00,SystemResetWarning,0832.5,5.02,000.00,025.5,024.5,000.0,033.8,026.8,7.2,0000.0,0001.14,0004.27,0000.61
2023-12-30 00:43:00,SystemResetWarning,0832.5,5.01,000.00,025.5,024.5,000.0,033.8,026.8,7.2,0000.0,0001.18,0004.52,0000.60
2023-12-30 00:44:00,SystemResetWarning,0832.5,5.00,000.00,025.5,024.5,000.0,033.8,026.8,7.2,0000.0,0001.20,0003.80,0000.60
2023-12-30 00:45:00,SystemResetWarning,0832.6,4.99,000.00,025.5,024.5,000.0,033.8,026.8,7.2,0000.0,0001.20,0003.35,0000.60
2023-12-30 00:46:00,SystemResetWarning,0832.6,4.99,000.00,025.5,024.5,000.0,033.8,026.8,7.2,0000.0,0001.17,0003.20,0000.59
2023-12-30 00:47:00,SystemResetWarning,0832.6,5.00,000.00,025.5,024.5,000.0,033.8,026.8,7.1,0000.0,0001.13,0002.90,0000.60
2023-12-30 00:48:00,SystemResetWarning,0832.6,5.00,000.00,025.5,024.5,000.0,033.8,026.7,7.1,0000.0,0001.17,0002.96,0000.62
2023-12-30 00:49:00,SystemResetWarning,0832.6,5.01,000.00,025.5,024.5,000.0,033.8,026.8,7.1,0000.0,0001.17,0003.04,0000.63
2023-12-30 00:50:00,SystemResetWarning,0832.6,5.00,000.00,025.5,024.5,000.0,033.8,026.8,7.1,0000.0,0001.19,0003.07,0000.65
2023-12-30 00:51:00,SystemResetWarning,0832.6,5.00,000.00,025.5,024.5,000.0,033.8,026.7,7.2,0000.0,0001.27,0003.22,0000.67
2023-12-30 00:52:00,SystemResetWarning,0832.6,5.00,000.00,025.5,024.5,000.0,033.8,026.7,7.2,0000.0,0001.34,0005.98,0000.69
2023-12-30 00:53:00,SystemResetWarning,0832.7,5.00,000.00,025.5,024.5,000.0,033.8,026.7,7.2,0000.0,0001.37,0008.12,0000.70
2023-12-30 00:54:00,SystemResetWarning,0832.7,4.99,000.00,025.5,024.4,000.0,033.8,026.7,7.2,0000.0,0001.39,0008.90,0000.71
2023-12-30 00:55:00,SystemResetWarning,0832.7,5.00,000.00,025.5,024.4,000.0,033.8,026.7,7.2,0000.0,0001.43,0009.04,0000.75
2023-12-30 00:56:00,SystemResetWarning,0832.7,5.00,000.00,025.5,024.4,000.0,033.7,026.7,7.2,0000.0,0001.52,0009.27,0000.78
2023-12-30 00:57:00,SystemResetWarning,0832.7,5.01,000.00,025.4,024.4,000.0,033.7,026.7,7.2,0000.0,0001.55,0010.40,0000.80
2023-12-30 00:58:00,SystemResetWarning,0832.7,5.01,000.00,025.4,024.4,000.0,033.7,026.7,7.2,0000.0,0001.55,0010.41,0000.81
2023-12-30 00:59:00,SystemResetWarning,0832.7,5.00,000.00,025.4,024.4,000.0,033.7,026.7,7.3,0000.0,0001.55,0010.43,0000.82
